EW6143 Weather Reports


Display with metric or nautical units.
time (UTC)temp
F
wind
direction
speed
MPH
gust
MPH
rain 1hr
in
rain 24hr
in
rain mn
in
humidity
%
barometer
mb
20260505004540 77 335 7.0 14.0 0.00 0.00 0.00 62 1006.3
20260505003048 77 336 8.0 18.0 0.00 0.00 0.00 61 1006.3
20260505001530 78 323 9.0 18.0 0.00 0.00 0.00 61 1006.5
20260505000034 78 324 9.0 22.0 0.00 0.00 0.00 60 1006.5
20260504234527 78 327 9.0 14.0 0.00 0.00 0.00 60 1006.7
20260504233029 78 360 6.0 15.0 0.00 0.00 0.00 60 1006.7
20260504231530 79 245 7.0 13.0 0.00 0.00 0.00 59 1006.8
20260504230027 80 352 10.0 24.0 0.00 0.00 0.00 57 1007.0
20260504224528 80 327 7.0 18.0 0.00 0.00 0.00 58 1007.2
20260504223031 80 319 10.0 19.0 0.00 0.00 0.00 57 1007.0
20260504221526 80 288 8.0 20.0 0.00 0.00 0.00 57 1007.2
20260504220031 80 301 8.0 23.0 0.00 0.00 0.00 57 1007.4
20260504214531 80 325 9.0 18.0 0.00 0.00 0.00 56 1007.8
20260504213029 80 352 8.0 19.0 0.00 0.00 0.00 56 1007.8
20260504211536 80 320 10.0 24.0 0.00 0.00 0.00 55 1008.1
20260504210026 80 342 8.0 17.0 0.00 0.00 0.00 56 1008.2
20260504204532 80 330 7.0 18.0 0.00 0.00 0.00 55 1008.7
20260504203029 80 301 7.0 21.0 0.00 0.00 0.00 53 1009.1
20260504201529 80 290 9.0 19.0 0.00 0.00 0.00 52 1009.3
20260504200029 80 360 9.0 20.0 0.00 0.00 0.00 52 1009.5
20260504194528 79 351 9.0 17.0 0.00 0.00 0.00 53 1009.9
20260504193030 79 318 9.0 19.0 0.00 0.00 0.00 52 1009.9
20260504191529 79 290 9.0 18.0 0.00 0.00 0.00 51 1010.3
20260504190028 79 331 8.0 18.0 0.00 0.00 0.00 51 1010.3
20260504184541 79 288 7.0 17.0 0.00 0.00 0.00 49 1010.6
20260504183029 78 360 9.0 21.0 0.00 0.00 0.00 49 1010.9
20260504181531 78 360 8.0 16.0 0.00 0.00 0.00 50 1011.1
20260504180028 78 351 9.0 20.0 0.00 0.00 0.00 50 1011.3
20260504174529 76 360 9.0 19.0 0.00 0.00 0.00 50 1011.6
20260504173028 76 350 9.0 18.0 0.00 0.00 0.00 50 1011.8
20260504171529 75 317 9.0 20.0 0.00 0.00 0.00 52 1012.0
20260504081531 64 339 3.0 11.0 0.00 0.00 0.00 62 1014.1
20260504044533 68 333 3.0 7.0 0.00 0.00 0.00 54 1015.9
20260504043031 68 327 2.0 6.0 0.00 0.00 0.00 54 1016.0
20260504041534 67 336 2.0 5.0 0.00 0.00 0.00 54 1016.0
20260504040034 67 333 2.0 4.0 0.00 0.00 0.00 54 1016.1
20260504034532 68 328 1.0 4.0 0.00 0.00 0.00 54 1016.0
20260504033030 68 306 1.0 4.0 0.00 0.00 0.00 53 1016.0
20260504031530 69 288 1.0 7.0 0.00 0.00 0.00 51 1016.0
20260504030029 70 292 2.0 5.0 0.00 0.00 0.00 50 1015.9
20260504024531 70 326 2.0 5.0 0.00 0.00 0.00 49 1015.8
20260504023031 71 300 2.0 4.0 0.00 0.00 0.00 48 1015.8
20260504021530 71 319 2.0 8.0 0.00 0.00 0.00 47 1015.8
20260504020031 72 300 3.0 7.0 0.00 0.00 0.00 45 1015.6
20260504014534 73 286 3.0 7.0 0.00 0.00 0.00 44 1015.8
20260504013039 73 319 3.0 9.0 0.00 0.00 0.00 43 1015.6
20260504011530 74 313 2.0 9.0 0.00 0.00 0.00 41 1015.5
20260504010028 75 300 3.0 9.0 0.00 0.00 0.00 40 1015.4